SHT22A EGLL-EGJB

Flight info

Callsign SHT22A
Flight time 0h 40m
Altitude 17000
Route GASGU N514 EVTES N621 SAM/N0359F180 N63 LELNA
Aircraft A319/M-SDE3FGHIRWY/LB1

Departure

Time 2026-04-25 23:07
Airport London Heathrow Airport (EGLL)

Arrival

Time 2026-04-25 23:47
Airport Guernsey Airport (EGJB)
Time Latitude Longitude Altitude Speed Heading
2026-04-25 22:37 51.47233 -0.48588 86 ft 0 kts 270°
2026-04-25 22:54 51.47233 -0.48583 91 ft 3 kts 270°
2026-04-25 22:55 51.47233 -0.48540 88 ft 4 kts 270°
2026-04-25 22:55 51.47233 -0.48506 89 ft 4 kts 259°
2026-04-25 22:55 51.47244 -0.48476 89 ft 4 kts 195°
2026-04-25 22:55 51.47268 -0.48473 86 ft 3 kts 180°
2026-04-25 22:56 51.47270 -0.48473 86 ft 0 kts 180°
2026-04-25 22:59 51.47262 -0.48473 90 ft 4 kts 180°
2026-04-25 23:00 51.47217 -0.48473 89 ft 9 kts 180°
2026-04-25 23:00 51.47132 -0.48472 86 ft 15 kts 179°
2026-04-25 23:00 51.47013 -0.48470 86 ft 17 kts 179°
2026-04-25 23:00 51.46919 -0.48470 87 ft 12 kts 180°
2026-04-25 23:01 51.46855 -0.48470 86 ft 7 kts 180°
2026-04-25 23:01 51.46826 -0.48469 86 ft 1 kts 179°
2026-04-25 23:01 51.46825 -0.48469 86 ft 0 kts 179°
2026-04-25 23:02 51.46824 -0.48469 86 ft 1 kts 179°
2026-04-25 23:02 51.46790 -0.48469 86 ft 10 kts 179°
2026-04-25 23:03 51.46702 -0.48467 86 ft 15 kts 179°
2026-04-25 23:03 51.46615 -0.48466 86 ft 6 kts 180°
2026-04-25 23:03 51.46592 -0.48466 87 ft 0 kts 180°
2026-04-25 23:04 51.46574 -0.48466 87 ft 5 kts 180°
2026-04-25 23:05 51.46526 -0.48466 87 ft 9 kts 180°
2026-04-25 23:05 51.46483 -0.48458 89 ft 4 kts 146°
2026-04-25 23:05 51.46479 -0.48431 87 ft 0 kts 91°
2026-04-25 23:06 51.46479 -0.48416 87 ft 6 kts 91°
2026-04-25 23:07 51.46481 -0.47960 87 ft 83 kts 89°
2026-04-25 23:07 51.46485 -0.46619 200 ft 144 kts 90°
2026-04-25 23:07 51.46498 -0.44953 840 ft 154 kts 90°
2026-04-25 23:07 51.46523 -0.43228 1679 ft 155 kts 89°
2026-04-25 23:08 51.46428 -0.41522 2373 ft 157 kts 111°
2026-04-25 23:08 51.45823 -0.40073 3070 ft 156 kts 126°
2026-04-25 23:08 51.45162 -0.38655 3633 ft 168 kts 124°
2026-04-25 23:08 51.44453 -0.37019 4034 ft 191 kts 123°
2026-04-25 23:09 51.43633 -0.35167 4481 ft 217 kts 129°
2026-04-25 23:09 51.42396 -0.33562 5041 ft 244 kts 152°
2026-04-25 23:09 51.40689 -0.32794 5684 ft 267 kts 176°
2026-04-25 23:09 51.38826 -0.33217 5970 ft 274 kts 201°
2026-04-25 23:10 51.37246 -0.34887 6032 ft 274 kts 223°
2026-04-25 23:10 51.35847 -0.36963 6033 ft 274 kts 223°
2026-04-25 23:10 51.34428 -0.39049 6539 ft 278 kts 222°
2026-04-25 23:10 51.32998 -0.41138 7571 ft 279 kts 222°
2026-04-25 23:11 51.31572 -0.43254 8614 ft 281 kts 227°
2026-04-25 23:11 51.30426 -0.45800 9611 ft 285 kts 243°
2026-04-25 23:11 51.29750 -0.48786 10521 ft 292 kts 255°
2026-04-25 23:11 51.29183 -0.52033 10915 ft 315 kts 255°
2026-04-25 23:12 51.28572 -0.55466 11574 ft 326 kts 255°
2026-04-25 23:12 51.27935 -0.58976 12381 ft 331 kts 254°
2026-04-25 23:12 51.27262 -0.62515 13224 ft 336 kts 253°
2026-04-25 23:12 51.26561 -0.66102 14062 ft 340 kts 253°
2026-04-25 23:13 51.25853 -0.69682 14794 ft 344 kts 253°
2026-04-25 23:13 51.25117 -0.73390 15556 ft 348 kts 253°
2026-04-25 23:13 51.24386 -0.77085 16319 ft 351 kts 254°
2026-04-25 23:13 51.23660 -0.80765 17067 ft 353 kts 254°
2026-04-25 23:14 51.22919 -0.84520 17827 ft 357 kts 254°
2026-04-25 23:14 51.22170 -0.88313 18168 ft 358 kts 255°
2026-04-25 23:14 51.21426 -0.92085 18265 ft 352 kts 255°
2026-04-25 23:14 51.20543 -0.95709 18243 ft 351 kts 245°
2026-04-25 23:15 51.19227 -0.98979 18247 ft 352 kts 234°
2026-04-25 23:15 51.17724 -1.02053 18247 ft 351 kts 234°
2026-04-25 23:15 51.16225 -1.05128 18247 ft 351 kts 234°
2026-04-25 23:15 51.14728 -1.08199 18248 ft 351 kts 234°
2026-04-25 23:16 51.13234 -1.11261 18248 ft 351 kts 234°
2026-04-25 23:16 51.11735 -1.14326 18249 ft 351 kts 234°
2026-04-25 23:16 51.10236 -1.17386 18266 ft 351 kts 234°
2026-04-25 23:16 51.08693 -1.20403 18268 ft 352 kts 229°
2026-04-25 23:17 51.06836 -1.22966 18271 ft 355 kts 217°
2026-04-25 23:17 51.04760 -1.25093 18273 ft 356 kts 215°
2026-04-25 23:17 51.02674 -1.27209 18275 ft 356 kts 215°
2026-04-25 23:17 51.00588 -1.29331 18276 ft 356 kts 215°
2026-04-25 23:18 50.98502 -1.31457 18276 ft 356 kts 215°
2026-04-25 23:18 50.96423 -1.33576 18278 ft 356 kts 215°
2026-04-25 23:18 50.94262 -1.35512 18279 ft 358 kts 209°
2026-04-25 23:18 50.92064 -1.37268 18281 ft 358 kts 209°
2026-04-25 23:19 50.89839 -1.39042 18284 ft 358 kts 209°
2026-04-25 23:19 50.87614 -1.40816 18285 ft 358 kts 209°
2026-04-25 23:19 50.85394 -1.42589 18277 ft 358 kts 209°
2026-04-25 23:19 50.83172 -1.44365 18278 ft 357 kts 209°
2026-04-25 23:20 50.80951 -1.46137 18281 ft 357 kts 209°
2026-04-25 23:20 50.78736 -1.47899 18280 ft 357 kts 209°
2026-04-25 23:20 50.76513 -1.49660 18278 ft 357 kts 209°
2026-04-25 23:20 50.74298 -1.51416 18261 ft 356 kts 209°
2026-04-25 23:21 50.72081 -1.53174 18260 ft 356 kts 209°
2026-04-25 23:21 50.69897 -1.54903 18258 ft 356 kts 209°
2026-04-25 23:21 50.67682 -1.56657 18257 ft 356 kts 209°
2026-04-25 23:21 50.65464 -1.58411 18257 ft 357 kts 209°
2026-04-25 23:22 50.63246 -1.60161 18247 ft 357 kts 208°
2026-04-25 23:22 50.61023 -1.61910 18252 ft 357 kts 208°
2026-04-25 23:22 50.58805 -1.63653 18254 ft 357 kts 208°
2026-04-25 23:23 50.54359 -1.67145 18257 ft 357 kts 208°
2026-04-25 23:23 50.52135 -1.68890 18258 ft 357 kts 208°
2026-04-25 23:23 50.49912 -1.70634 18258 ft 357 kts 208°
2026-04-25 23:23 50.47690 -1.72376 18256 ft 357 kts 208°
2026-04-25 23:24 50.45466 -1.74119 18260 ft 357 kts 208°
2026-04-25 23:24 50.43245 -1.75857 18260 ft 357 kts 208°
2026-04-25 23:24 50.41024 -1.77591 18261 ft 357 kts 208°
2026-04-25 23:24 50.38830 -1.79301 18253 ft 357 kts 208°
2026-04-25 23:25 50.36577 -1.81054 18255 ft 357 kts 208°
2026-04-25 23:25 50.34385 -1.82762 18256 ft 357 kts 208°
2026-04-25 23:25 50.32159 -1.84496 18257 ft 357 kts 208°
2026-04-25 23:25 50.29935 -1.86227 18263 ft 357 kts 208°
2026-04-25 23:26 50.27715 -1.87950 18264 ft 356 kts 208°
2026-04-25 23:26 50.25491 -1.89672 18266 ft 356 kts 208°
2026-04-25 23:26 50.23276 -1.91385 18268 ft 356 kts 208°
2026-04-25 23:26 50.21058 -1.93098 18267 ft 355 kts 208°
2026-04-25 23:27 50.18840 -1.94811 18270 ft 355 kts 208°
2026-04-25 23:27 50.16623 -1.96523 18262 ft 355 kts 208°
2026-04-25 23:27 50.14409 -1.98233 18261 ft 355 kts 208°
2026-04-25 23:27 50.12189 -1.99944 18264 ft 355 kts 208°
2026-04-25 23:28 50.09970 -2.01652 18270 ft 355 kts 208°
2026-04-25 23:28 50.07755 -2.03358 18265 ft 355 kts 208°
2026-04-25 23:28 50.05566 -2.05041 18268 ft 355 kts 208°
2026-04-25 23:28 50.03346 -2.06744 18263 ft 355 kts 208°
2026-04-25 23:29 50.01128 -2.08443 18265 ft 355 kts 208°
2026-04-25 23:29 49.98964 -2.10291 18262 ft 354 kts 216°
2026-04-25 23:29 49.97081 -2.12725 18259 ft 352 kts 227°
2026-04-25 23:29 49.95456 -2.15548 18260 ft 351 kts 230°
2026-04-25 23:30 49.93838 -2.18393 18253 ft 351 kts 230°
2026-04-25 23:30 49.92218 -2.21226 18260 ft 351 kts 230°
2026-04-25 23:30 49.90608 -2.24033 18063 ft 344 kts 230°
2026-04-25 23:30 49.89034 -2.26770 17799 ft 338 kts 230°
2026-04-25 23:31 49.87481 -2.29471 17540 ft 334 kts 229°
2026-04-25 23:31 49.85943 -2.32145 17281 ft 329 kts 229°
2026-04-25 23:31 49.84430 -2.34773 16908 ft 324 kts 229°
2026-04-25 23:31 49.82976 -2.37300 16508 ft 321 kts 229°
2026-04-25 23:32 49.81493 -2.39871 16094 ft 319 kts 229°
2026-04-25 23:32 49.80023 -2.42417 15680 ft 316 kts 229°
2026-04-25 23:32 49.78562 -2.44946 15269 ft 314 kts 229°
2026-04-25 23:32 49.77110 -2.47456 14863 ft 312 kts 228°
2026-04-25 23:33 49.75669 -2.49949 14454 ft 310 kts 228°
2026-04-25 23:33 49.74252 -2.52399 14057 ft 309 kts 228°
2026-04-25 23:33 49.72825 -2.54867 13622 ft 307 kts 227°
2026-04-25 23:33 49.71258 -2.57063 13219 ft 303 kts 214°
2026-04-25 23:34 49.69397 -2.58559 12805 ft 301 kts 200°
2026-04-25 23:34 49.67365 -2.59280 12406 ft 300 kts 186°
2026-04-25 23:34 49.65280 -2.59401 11994 ft 299 kts 182°
2026-04-25 23:34 49.63204 -2.59487 11584 ft 298 kts 182°
2026-04-25 23:35 49.61138 -2.59579 11179 ft 297 kts 182°
2026-04-25 23:35 49.59075 -2.59672 10771 ft 296 kts 182°
2026-04-25 23:35 49.57016 -2.59765 10365 ft 295 kts 182°
2026-04-25 23:35 49.54979 -2.59859 10124 ft 289 kts 182°
2026-04-25 23:36 49.52967 -2.59953 9846 ft 292 kts 182°
2026-04-25 23:36 49.51618 -2.60018 9533 ft 293 kts 182°
2026-04-25 23:36 49.48898 -2.60153 8898 ft 294 kts 182°
2026-04-25 23:36 49.46885 -2.60354 8562 ft 289 kts 192°
2026-04-25 23:37 49.45086 -2.61616 8189 ft 284 kts 219°
2026-04-25 23:37 49.43868 -2.63950 7686 ft 278 kts 248°
2026-04-25 23:37 49.43487 -2.66721 7562 ft 256 kts 268°
2026-04-25 23:37 49.43390 -2.69358 7442 ft 238 kts 268°
2026-04-25 23:38 49.43292 -2.71788 7315 ft 219 kts 267°
2026-04-25 23:38 49.43200 -2.74032 7187 ft 202 kts 268°
2026-04-25 23:38 49.43114 -2.76129 6930 ft 193 kts 268°
2026-04-25 23:38 49.43033 -2.78154 6569 ft 191 kts 268°
2026-04-25 23:39 49.43073 -2.80178 6155 ft 189 kts 280°
2026-04-25 23:39 49.43402 -2.82122 5777 ft 188 kts 292°
2026-04-25 23:39 49.43993 -2.83899 5496 ft 186 kts 304°
2026-04-25 23:39 49.44810 -2.85432 5211 ft 185 kts 314°
2026-04-25 23:40 49.45695 -2.86857 4911 ft 184 kts 314°
2026-04-25 23:40 49.46576 -2.88286 4607 ft 184 kts 314°
2026-04-25 23:40 49.47456 -2.89714 4321 ft 184 kts 314°
2026-04-25 23:40 49.48257 -2.91245 3996 ft 184 kts 297°
2026-04-25 23:41 49.48386 -2.93151 3748 ft 179 kts 253°
2026-04-25 23:41 49.47674 -2.94592 3575 ft 170 kts 211°
2026-04-25 23:41 49.46542 -2.94851 3269 ft 168 kts 165°
2026-04-25 23:41 49.45571 -2.93911 2973 ft 166 kts 137°
2026-04-25 23:42 49.44748 -2.92666 2718 ft 165 kts 134°
2026-04-25 23:42 49.43953 -2.91405 2446 ft 164 kts 133°
2026-04-25 23:42 49.43182 -2.90136 2174 ft 162 kts 127°
2026-04-25 23:42 49.42740 -2.88579 2039 ft 160 kts 101°
2026-04-25 23:43 49.42722 -2.86876 2029 ft 160 kts 88°
2026-04-25 23:43 49.42773 -2.85165 2026 ft 160 kts 88°
2026-04-25 23:43 49.42824 -2.83452 2025 ft 160 kts 88°
2026-04-25 23:43 49.42875 -2.81739 2024 ft 161 kts 88°
2026-04-25 23:44 49.42925 -2.80043 2012 ft 161 kts 88°
2026-04-25 23:44 49.42976 -2.78328 2013 ft 161 kts 88°
2026-04-25 23:44 49.43026 -2.76614 2012 ft 161 kts 88°
2026-04-25 23:44 49.43076 -2.74893 1957 ft 161 kts 88°
2026-04-25 23:45 49.43126 -2.73206 1798 ft 153 kts 88°
2026-04-25 23:45 49.43171 -2.71645 1625 ft 138 kts 88°
2026-04-25 23:45 49.43211 -2.70242 1449 ft 127 kts 88°
2026-04-25 23:45 49.43249 -2.68904 1286 ft 124 kts 88°
2026-04-25 23:46 49.43287 -2.67597 1120 ft 121 kts 88°
2026-04-25 23:46 49.43323 -2.66313 971 ft 120 kts 87°
2026-04-25 23:46 49.43361 -2.65038 804 ft 119 kts 88°
2026-04-25 23:46 49.43397 -2.63772 642 ft 118 kts 88°
2026-04-25 23:47 49.43429 -2.62511 490 ft 118 kts 89°
2026-04-25 23:47 49.43467 -2.61258 349 ft 117 kts 88°
2026-04-25 23:47 49.43489 -2.60465 332 ft 104 kts 87°
2026-04-25 23:47 49.43509 -2.59784 345 ft 40 kts 88°
2026-04-25 23:48 49.43519 -2.59390 348 ft 27 kts 88°
2026-04-25 23:48 49.43490 -2.59198 348 ft 15 kts 162°
2026-04-25 23:48 49.43413 -2.59197 348 ft 9 kts 183°
2026-04-25 23:48 49.43374 -2.59257 345 ft 7 kts 258°
2026-04-25 23:49 49.43371 -2.59354 345 ft 11 kts 267°
2026-04-25 23:49 49.43366 -2.59490 352 ft 14 kts 267°
2026-04-25 23:49 49.43362 -2.59640 345 ft 8 kts 268°
2026-04-25 23:49 49.43351 -2.59691 348 ft 5 kts 217°
2026-04-25 23:50 49.43302 -2.59690 345 ft 9 kts 178°
2026-04-25 23:50 49.43265 -2.59688 345 ft 2 kts 178°
2026-04-25 23:50 49.43260 -2.59688 345 ft 0 kts 178°